Вернуться в каталог

COSMOS 2179

GLONASS

АктивенНавигацияMEO
NORAD 21855·PAYLOAD·🇷🇺 Russia

Запущен Jan 29, 1992 с Baikonur Cosmodrome

Loading…

Ближайшие Пролёты (ближайшие 24 часа)

TLE

СвежийSource: Space-Track

Эпоха: Sep 14, 2026, 11:50 UTC

1 21855U 92005C   26257.49327507 -.00000014  00000-0  00000-0 0  9992
2 21855  64.9486  66.9760 0014487 250.6674 114.1590  2.13102787269254

Отслеживайте COSMOS 2179 в реальном времени с AllMySat

Download on the App Store